[[{"header":{"parameterUnit":"m.s-1","parameterCategory":1,"la1":30.2991,"la2":30.254,"lo1":-89.0895,"lo2":-89.0444,"dy":0.0017,"dx":0.0017,"nx":28,"ny":28,"refTime":"2024-08-21T21:00:00:Z","depth":0,"parameterNumber":2,"parameterNumberName":"U-component_of_WINDS"},"data":[0,0,0,0,0,0,0,0,0,0,0,0,0,0,0,0,0,0,0,0,0,0,0,0,0,0,0,0,0,0,0,0,0,0,0,0,0,0,0,0,0,0,0,0,0,0,0,0,0,0,0,0,0,0,0,0,0,0,-0.3139,-0.3137,0,-0.3014,-0.3012,-0.3011,-0.2927,-0.2927,-0.2926,-0.2926,-0.2794,-0.2791,-0.2788,0,0,0,0,0,0,0,0,0,0,0,0,0,-0.3303,-0.33,-0.3139,-0.3137,-0.3136,-0.3014,-0.3012,-0.301,-0.2927,-0.2927,-0.2926,-0.2925,-0.2795,-0.2791,-0.2788,0,0,0,0,0,0,0,0,0,0,0,0,0,-0.321,-0.3299,-0.3139,-0.308,-0.3073,-0.3014,-0.3012,-0.301,-0.2927,-0.2927,-0.2926,-0.2925,-0.2796,-0.2791,-0.2787,-0.2776,0,0,-0.2773,-0.2771,0,0,0,0,0,0,0,0,-0.3215,-0.3204,-0.309,-0.3084,-0.3076,-0.2985,-0.3021,-0.2931,-0.2928,-0.2983,-0.2926,-0.2925,-0.2858,-0.2848,-0.2826,-0.277,-0.2764,-0.2773,-0.277,-0.2768,-0.2767,0,0,0,0,0,0,0,-0.3222,-0.3209,-0.3089,-0.3088,-0.308,-0.3058,-0.3044,-0.3004,-0.2926,-0.2978,-0.2971,-0.2958,-0.2854,-0.2831,-0.2823,-0.2762,-0.2773,-0.2769,-0.2766,-0.2765,-0.2691,-0.2692,0,0,0,0,0,0,-0.3238,-0.3215,-0.3093,-0.3085,-0.3145,-0.3056,-0.304,-0.3015,-0.2927,-0.2912,-0.2959,-0.2955,-0.2839,-0.2828,-0.2818,-0.28,-0.2768,-0.2764,-0.2762,-0.269,-0.2691,-0.2692,0,0,0,0,0,0,-0.3242,-0.3228,-0.3098,-0.3148,-0.313,-0.3054,-0.3027,-0.3013,-0.299,-0.2912,-0.2898,-0.295,-0.2838,-0.2824,-0.2787,-0.2794,-0.2762,-0.2758,-0.2689,-0.2691,-0.2692,-0.2763,0,0,0,0,0,0,-0.3247,-0.323,-0.3226,-0.3149,-0.3128,-0.3071,-0.3027,-0.3011,-0.2983,-0.2976,-0.29,-0.2887,-0.2836,-0.2795,-0.2783,-0.2787,-0.2755,-0.2688,-0.269,-0.2691,-0.276,-0.2767,-0.2773,0,0,0,0,0,-0.3253,-0.325,-0.3226,-0.3212,-0.3121,-0.3072,-0.306,-0.3003,-0.2984,-0.2979,-0.2929,-0.2889,-0.2795,-0.2792,-0.2778,-0.2781,-0.2688,-0.2689,-0.2691,-0.2757,-0.2766,-0.2772,0,0,0,0,0,0,-0.3328,-0.3239,-0.3211,-0.3183,-0.3136,-0.3058,-0.3049,-0.3013,-0.2969,-0.2964,-0.2895,-0.2878,-0.2849,-0.281,-0.2808,-0.2766,-0.2737,-0.2736,-0.2792,-0.2799,-0.2805,-0.2815,-0.2751,0,0,0,0,0,-0.3342,-0.331,-0.3233,-0.3216,-0.3194,-0.3126,-0.3102,-0.3063,-0.301,-0.299,-0.2937,-0.2886,-0.2845,-0.282,-0.2778,-0.2754,-0.2736,-0.2749,-0.2756,-0.2761,-0.2761,-0.2746,-0.2751,-0.2697,-0.2697,-0.2697,0,0,-0.3369,-0.3316,-0.3301,-0.323,-0.3189,-0.3157,-0.311,-0.3078,-0.3053,-0.2984,-0.2947,-0.2907,-0.2846,-0.2816,-0.28,-0.2783,-0.2772,-0.2763,-0.2768,-0.2765,-0.2748,-0.2754,-0.2758,-0.2698,-0.2698,-0.2698,0,0,-0.3403,-0.336,-0.3341,-0.3301,-0.324,-0.3194,-0.319,-0.3117,-0.3088,-0.305,-0.2998,-0.2967,-0.2898,-0.2857,-0.2827,-0.2846,-0.2808,-0.2834,-0.2867,-0.2853,-0.2857,-0.2861,-0.2868,-0.2871,-0.2834,-0.2834,-0.2835,0,-0.3444,-0.3395,-0.3336,-0.3307,-0.3278,-0.3215,-0.3196,-0.3159,-0.3087,-0.3067,-0.305,-0.2962,-0.2917,-0.2877,-0.2882,-0.2859,-0.2852,-0.2843,-0.2862,-0.2865,-0.2867,-0.2873,-0.2876,-0.2838,-0.2838,-0.2837,-0.2837,0,-0.3449,-0.3416,-0.3408,-0.3342,-0.3311,-0.3287,-0.3223,-0.3199,-0.3162,-0.3119,-0.3081,-0.3024,-0.297,-0.2957,-0.292,-0.2912,-0.2904,-0.2875,-0.2845,-0.2877,-0.2881,-0.2883,-0.2843,-0.2842,-0.2841,-0.284,0,0,-0.3527,-0.3428,-0.3427,-0.3396,-0.3323,-0.3296,-0.3269,-0.3217,-0.3198,-0.315,-0.3126,-0.3069,-0.3042,-0.3008,-0.2966,-0.2954,-0.2974,-0.2926,-0.2924,-0.2938,-0.2961,-0.2984,-0.2988,-0.2948,-0.2948,-0.2948,-0.2967,0,-0.355,-0.35,-0.3446,-0.3414,-0.3383,-0.3323,-0.3299,-0.3252,-0.3211,-0.3177,-0.3131,-0.3092,-0.3059,-0.3039,-0.3024,-0.2975,-0.2977,-0.2972,-0.2924,-0.2923,-0.2942,-0.299,-0.3014,-0.3034,-0.2968,-0.2968,-0.2969,0,-0.357,-0.3527,-0.3493,-0.3424,-0.3409,-0.3389,-0.3337,-0.3306,-0.3251,-0.3222,-0.3185,-0.314,-0.3108,-0.3082,-0.3036,-0.3034,-0.3011,-0.2983,-0.2983,-0.2976,-0.2948,-0.2986,-0.3039,-0.3043,-0.2971,-0.297,-0.297,0,-0.3631,-0.3564,-0.3535,-0.351,-0.3429,-0.3417,-0.3382,-0.3326,-0.3299,-0.3253,-0.3235,-0.3186,-0.3159,-0.3122,-0.3065,-0.3051,-0.3026,-0.2994,-0.3001,-0.3002,-0.2998,-0.2999,-0.305,-0.2983,-0.2983,-0.2983,-0.2983,0,-0.3663,-0.3645,-0.3561,-0.3544,-0.3521,-0.3459,-0.3437,-0.3397,-0.3348,-0.3321,-0.3266,-0.3241,-0.3167,-0.3134,-0.3089,-0.3059,-0.3047,-0.3022,-0.301,-0.3027,-0.3031,-0.3011,-0.3009,-0.2983,-0.2983,-0.2983,-0.2983,0,-0.3727,-0.3671,-0.3636,-0.3562,-0.3543,-0.353,-0.3466,-0.3446,-0.3402,-0.3369,-0.3357,-0.3287,-0.3245,-0.3185,-0.3124,-0.3094,-0.307,-0.3051,-0.3089,-0.3082,-0.3092,-0.3093,-0.3132,-0.3135,-0.3067,-0.3067,-0.3068,0,-0.3752,-0.3736,-0.3662,-0.364,-0.3608,-0.3574,-0.3546,-0.3484,-0.3457,-0.3394,-0.3381,-0.3335,-0.3295,-0.323,-0.3173,-0.3126,-0.3106,-0.3123,-0.3099,-0.3117,-0.3107,-0.3109,-0.3107,-0.313,-0.3131,-0.3132,-0.3132,0,-0.3801,-0.3774,-0.3737,-0.369,-0.3659,-0.3619,-0.3576,-0.3561,-0.3489,-0.3462,-0.3419,-0.3388,-0.3326,-0.3281,-0.3227,-0.319,-0.3149,-0.3141,-0.314,-0.3157,-0.318,-0.3169,-0.3106,-0.314,-0.3139,-0.3139,-0.3138,-0.3138,-0.3846,-0.383,-0.3776,-0.3736,-0.3698,-0.3659,-0.3637,-0.3591,-0.3554,-0.35,-0.3465,-0.3424,-0.3369,-0.3292,-0.3257,-0.3224,-0.3207,-0.3205,-0.3205,-0.3206,-0.3212,-0.3186,-0.3213,-0.3213,-0.3213,-0.3213,-0.3212,0,-0.3894,-0.3856,-0.382,-0.3763,-0.3732,-0.3697,-0.3648,-0.3624,-0.3589,-0.3542,-0.3504,-0.3454,-0.3411,-0.3351,-0.3303,-0.3287,-0.3267,-0.3277,-0.3277,-0.327,-0.323,-0.3236,-0.3293,-0.3293,-0.3293,-0.3293,-0.3293,-0.3293,-0.3915,-0.3886,-0.3853,-0.3804,-0.3766,-0.3726,-0.3701,-0.3665,-0.3627,-0.3575,-0.3539,-0.3501,-0.3448,-0.3396,-0.3354,-0.3337,-0.3322,-0.3338,-0.3316,-0.328,-0.3272,-0.3265,-0.3271,-0.3335,-0.3335,-0.3358,-0.3358,-0.3359]},{"header":{"parameterUnit":"m.s-1","parameterCategory":1,"la1":30.2991,"la2":30.254,"lo1":-89.0895,"lo2":-89.0444,"dy":0.0017,"dx":0.0017,"nx":28,"ny":28,"refTime":"2024-08-21T21:00:00:Z","depth":0,"parameterNumber":3,"parameterNumberName":"V-component_of_WINDS"},"data":[0,0,0,0,0,0,0,0,0,0,0,0,0,0,0,0,0,0,0,0,0,0,0,0,0,0,0,0,0,0,0,0,0,0,0,0,0,0,0,0,0,0,0,0,0,0,0,0,0,0,0,0,0,0,0,0,0,0,1.7204,1.7204,0,1.7177,1.7177,1.7176,1.7158,1.7158,1.7158,1.7158,1.7129,1.7128,1.7128,0,0,0,0,0,0,0,0,0,0,0,0,0,1.7238,1.7237,1.7204,1.7204,1.7203,1.7177,1.7177,1.7176,1.7158,1.7158,1.7158,1.7158,1.7129,1.7128,1.7128,0,0,0,0,0,0,0,0,0,0,0,0,0,1.7218,1.7237,1.7204,1.7191,1.719,1.7177,1.7177,1.7176,1.7158,1.7158,1.7158,1.7157,1.7129,1.7129,1.7128,1.7125,0,0,1.7125,1.7124,0,0,0,0,0,0,0,0,1.7219,1.7217,1.7193,1.7192,1.719,1.7171,1.7178,1.7159,1.7158,1.717,1.7158,1.7157,1.7143,1.7141,1.7136,1.7124,1.7123,1.7125,1.7124,1.7124,1.7123,0,0,0,0,0,0,0,1.7221,1.7218,1.7193,1.7193,1.7191,1.7186,1.7183,1.7174,1.7158,1.7169,1.7168,1.7165,1.7142,1.7137,1.7135,1.7122,1.7125,1.7124,1.7123,1.7123,1.7104,1.7104,0,0,0,0,0,0,1.7224,1.7219,1.7194,1.7193,1.7205,1.7185,1.7182,1.7177,1.7158,1.7155,1.7165,1.7164,1.7139,1.7137,1.7134,1.7128,1.7124,1.7123,1.7122,1.7104,1.7104,1.7104,0,0,0,0,0,0,1.7225,1.7222,1.7195,1.7205,1.7202,1.7185,1.718,1.7177,1.7172,1.7155,1.7152,1.7163,1.7139,1.7136,1.7127,1.7127,1.7122,1.7121,1.7104,1.7104,1.7104,1.7118,0,0,0,0,0,0,1.7226,1.7223,1.7223,1.7206,1.7201,1.7189,1.718,1.7176,1.717,1.7169,1.7152,1.7149,1.7138,1.7129,1.7126,1.7126,1.7121,1.7104,1.7104,1.7104,1.7118,1.7119,1.712,0,0,0,0,0,1.7227,1.7228,1.7223,1.722,1.7201,1.719,1.7187,1.7175,1.717,1.7169,1.7158,1.715,1.7128,1.7128,1.7125,1.7124,1.7104,1.7104,1.7104,1.7117,1.7118,1.712,0,0,0,0,0,0,1.7246,1.7226,1.7219,1.7215,1.7204,1.7187,1.7185,1.7177,1.7167,1.7166,1.7151,1.7147,1.7139,1.7131,1.7132,1.712,1.7114,1.7114,1.7125,1.7127,1.7128,1.713,1.712,0,0,0,0,0,1.7249,1.7243,1.7225,1.7223,1.7217,1.7202,1.7197,1.7188,1.7176,1.7171,1.716,1.7148,1.7138,1.7132,1.7122,1.7116,1.7111,1.7114,1.7115,1.7116,1.7116,1.7109,1.711,1.7105,1.7105,1.7105,0,0,1.7257,1.7245,1.7242,1.7226,1.7217,1.7209,1.7199,1.7191,1.7185,1.717,1.7161,1.7152,1.7137,1.7129,1.7125,1.7122,1.7116,1.7116,1.7117,1.7116,1.711,1.711,1.7111,1.7105,1.7105,1.7105,0,0,1.7265,1.7257,1.7252,1.7243,1.7228,1.7218,1.7216,1.72,1.7193,1.7183,1.7171,1.7163,1.7147,1.7137,1.7129,1.7131,1.7122,1.7128,1.7134,1.7128,1.7128,1.7128,1.7127,1.7127,1.7128,1.7128,1.7128,0,1.7276,1.7265,1.7251,1.7244,1.7236,1.7222,1.7217,1.7208,1.7191,1.7186,1.7182,1.716,1.715,1.7138,1.7138,1.7133,1.713,1.713,1.7129,1.7129,1.7129,1.7128,1.7128,1.7129,1.7129,1.7129,1.7129,0,1.7277,1.7269,1.7268,1.7251,1.7243,1.7237,1.7221,1.7215,1.7206,1.7195,1.7184,1.7171,1.7157,1.7154,1.7146,1.714,1.7138,1.7132,1.7127,1.7131,1.7129,1.7129,1.713,1.713,1.7129,1.7129,0,0,1.7298,1.7273,1.7272,1.7263,1.7245,1.7238,1.723,1.7216,1.721,1.7198,1.719,1.7176,1.7169,1.7161,1.7151,1.7146,1.7146,1.714,1.714,1.7141,1.7136,1.714,1.714,1.714,1.714,1.714,1.7137,0,1.7303,1.7289,1.7275,1.7265,1.7256,1.7242,1.7234,1.7222,1.7211,1.7201,1.7189,1.7178,1.7172,1.7166,1.716,1.7147,1.7145,1.7147,1.7131,1.7131,1.7134,1.714,1.7144,1.7143,1.7137,1.7137,1.7137,0,1.7308,1.7296,1.7285,1.7265,1.7261,1.7255,1.7239,1.7231,1.7215,1.7207,1.7197,1.7186,1.7175,1.7171,1.7155,1.7157,1.7149,1.7141,1.7141,1.7138,1.7134,1.7136,1.7142,1.7141,1.7136,1.7136,1.7136,0,1.7322,1.7303,1.7293,1.7286,1.7264,1.7259,1.725,1.7234,1.7226,1.7212,1.7206,1.7192,1.7184,1.7172,1.7157,1.7155,1.7142,1.7136,1.7134,1.7134,1.7131,1.7132,1.7135,1.7128,1.7128,1.7128,1.7128,0,1.7328,1.7322,1.7299,1.7293,1.7284,1.7268,1.726,1.7249,1.7234,1.7225,1.7211,1.7202,1.7183,1.7172,1.716,1.7147,1.7144,1.7136,1.7133,1.7137,1.7138,1.7132,1.7131,1.7128,1.7128,1.7128,1.7128,0,1.7343,1.7327,1.7316,1.7295,1.7289,1.7283,1.7265,1.7258,1.7245,1.7233,1.723,1.721,1.7196,1.7179,1.716,1.7151,1.7139,1.7135,1.7144,1.7142,1.714,1.714,1.7139,1.7137,1.7132,1.7133,1.7133,0,1.7347,1.7342,1.732,1.7312,1.7303,1.7291,1.7282,1.7266,1.7257,1.7237,1.7232,1.7216,1.7203,1.718,1.7163,1.7147,1.7142,1.7143,1.714,1.7143,1.714,1.7141,1.7139,1.7144,1.7144,1.7144,1.7144,0,1.7357,1.7349,1.7337,1.7321,1.7311,1.7298,1.7284,1.7279,1.7259,1.7249,1.7234,1.7224,1.7202,1.7186,1.7168,1.7157,1.7146,1.7145,1.7143,1.7147,1.7152,1.7148,1.7146,1.7145,1.7145,1.7145,1.7145,1.7145,1.7365,1.7359,1.7342,1.7328,1.7316,1.7303,1.7294,1.728,1.7268,1.7249,1.724,1.7224,1.7206,1.7181,1.7169,1.7156,1.7153,1.7151,1.715,1.715,1.715,1.7155,1.7153,1.7153,1.7153,1.7153,1.7153,0,1.7373,1.7361,1.7348,1.7329,1.7318,1.7309,1.7293,1.7283,1.727,1.7254,1.7241,1.7222,1.7206,1.7188,1.717,1.7163,1.7157,1.7159,1.7159,1.7156,1.7155,1.7157,1.7163,1.7163,1.7163,1.7163,1.7163,1.7163,1.7375,1.7363,1.7353,1.7334,1.7321,1.7306,1.7297,1.7284,1.7272,1.7251,1.7238,1.7226,1.7209,1.7189,1.7173,1.7168,1.7162,1.7164,1.7157,1.7157,1.7156,1.7155,1.7158,1.7163,1.7163,1.7159,1.7159,1.7159]}]]